#timestamp,LO_Frequency,Hit,StdDev 
1696618815.8,286046997.2,P
1696618835.6,286046997.1,N
1696618855.5,286046998.2,N
1696618875.3,286047000.2,N
1696618895.2,286047000.5,N
1696618915.9,286047001.8,N
1696618935.7,286047002.6,N
1696618955.6,286047004.3,N
1696618975.4,286047003.9,N
1696618995.2,286047003.9,N
1696619015.1,286047003.6,N
1696619016.0,286047003.6,N
1696619035.8,286047003.2,N
1696619055.7,286047004.6,N
1696619075.5,286047007.1,N
1696619095.3,286047005.2,N
1696619115.2,286047005.8,N
1696619135.0,286047007.2,N
1696619135.9,286047007.2,N
1696619155.8,286047006.3,N
1696619175.6,286047007.9,N
1696619195.4,286047010.5,Y
1696619215.3,286047005.0,P
1696619235.1,286047003.1,P
1696619255.8,286047001.7,N
1696619275.7,286047002.0,N
1696619295.5,286047000.5,N
1696619315.4,286047000.2,N
1696619335.2,286046999.0,N
1696619355.0,286046996.9,N
1696619355.9,286046996.9,N
1696619375.8,286047002.2,N
1696619395.6,286047002.1,N
1696619415.4,286047001.8,N
1696619435.3,286047002.5,N
1696619455.1,286047002.3,N
1696619475.9,286046999.3,N
1696619495.7,286047000.0,N
1696619515.5,286047002.3,N
1696619535.4,286047002.7,N
1696619555.2,286047005.1,N
1696619575.0,286047004.8,N
1696619575.9,286047004.8,N
1696619595.8,286047008.6,Y
1696619615.6,286047006.8,P
1696619635.5,286047008.7,P
1696619655.3,286047010.8,P
1696619675.1,286047011.6,Y
1696619695.9,286047005.5,P
1696619715.7,286047005.4,P
1696619735.6,286047008.2,P
1696619755.4,286047007.7,Y
1696619775.2,286047003.6,P
1696619795.1,286047002.1,N
1696619796.0,286047002.1,N
1696619815.8,286047003.9,N
1696619835.7,286047001.6,N
1696619855.5,286047002.4,N
1696619875.3,286047003.2,N
1696619895.2,286047005.6,Y
1696619915.0,286047002.3,P
1696619915.9,286047002.3,P
1696619935.7,286047003.9,P
1696619955.6,286047003.7,Y
1696619975.4,286047004.2,P
1696619995.3,286047007.2,P
1696620015.1,286047007.5,P
1696620035.8,286047006.5,Y
1696620055.7,286047001.9,P
1696620075.5,286047004.2,N
1696620095.4,286047001.4,N
1696620115.2,286047002.8,N
1696620135.0,286046998.2,N
1696620135.9,286046998.2,N
1696620155.8,286047002.2,N
1696620175.6,286047002.9,N
1696620195.4,286047002.9,N
1696620215.3,286047003.1,N
1696620235.1,286046995.3,N
1696620255.9,286047004.8,N
1696620275.7,286047007.0,N
1696620295.5,286047002.7,N
1696620315.4,286047001.8,N
1696620335.2,286047015.3,Y
1696620355.0,286047009.1,P
1696620356.0,286047009.1,N
1696620375.8,286047011.1,P
1696620395.6,286047008.5,N
1696620415.5,286047001.9,N
1696620435.3,286047001.5,N
1696620455.1,286047003.9,N
1696620475.9,286047003.8,N
1696620495.7,286047004.0,N
1696620515.5,286047003.7,N
1696620535.4,286047002.9,N
1696620555.2,286047005.2,N
1696620575.1,286047005.6,N
1696620576.0,286047005.6,N
1696620595.8,286047005.3,N
1696620615.6,286047006.6,N
1696620635.5,286047006.3,N
1696620655.3,286047008.9,Y
1696620675.1,286047003.2,P
1696620695.9,286047001.3,N
1696620715.7,286047005.4,P
1696620735.6,286047006.6,Y
1696620755.4,286047006.7,P
1696620775.2,286047006.3,P
1696620795.1,286047008.4,P
1696620796.0,286047008.4,Y
1696620815.8,286047004.1,P
1696620835.7,286047005.5,P
1696620855.5,286047007.2,P
1696620875.3,286047008.8,Y
1696620895.2,286047002.9,P
1696620915.0,286047002.8,N
1696620915.9,286047002.8,N
1696620935.7,286047003.3,N
1696620955.6,286047005.2,Y
1696620975.4,286047004.2,P
1696620995.3,286047004.1,P
1696621015.1,286047005.0,P
1696621016.0,286047005.0,Y
1696621035.8,286046998.3,P
1696621055.7,286046999.9,N
1696621075.5,286047001.8,N
1696621095.4,286047004.4,N
1696621115.2,286047002.9,N
1696621135.0,286047007.3,Y
1696621135.9,286047007.3,P
1696621155.8,286047005.4,N
1696621175.6,286047007.0,P
1696621195.4,286047010.7,Y
1696621215.3,286047008.7,P
1696621235.1,286047007.6,P
1696621255.9,286047005.9,P
1696621275.7,286047005.1,Y
1696621295.5,286047002.7,P
1696621315.4,286047004.6,N
1696621335.2,286046999.2,N
1696621355.0,286046995.4,N
1696621356.0,286046995.4,N
1696621375.8,286046994.2,N
1696621395.6,286046991.9,N
1696621415.5,286046991.3,N
1696621435.3,286046994.6,N
1696621455.1,286046990.2,N
1696621475.9,286046983.8,Y
1696621495.7,286046989.8,P
1696621515.6,286046989.4,N
1696621535.4,286046988.0,P
1696621555.2,286046989.3,Y
1696621575.1,286047001.0,P
1696621576.0,286047001.0,N
1696621595.8,286046996.6,N
1696621615.7,286046994.9,N
1696621635.5,286046995.2,N
1696621655.4,286046995.5,N
1696621675.2,286046993.4,N
1696621695.0,286046993.4,N
1696621696.0,286046993.4,N
1696621715.8,286046995.2,N
1696621735.6,286046997.9,N
1696621755.5,286046997.7,N
1696621775.3,286047000.4,N
1696621795.2,286047004.0,N
1696621815.0,286047010.4,N
1696621815.9,286047010.4,N
1696621835.7,286047011.8,N
1696621855.6,286047018.6,Y
1696621875.4,286047020.4,P
1696621895.3,286047019.0,N
1696621915.1,286047018.5,N
1696621935.8,286047015.7,N
1696621955.7,286047014.8,N
1696621975.5,286047014.0,N
1696621995.4,286047012.2,N
1696622015.2,286047009.5,N
1696622035.0,286047008.5,N
1696622035.9,286047008.5,N
1696622055.8,286047011.0,N
1696622075.6,286047013.5,N
1696622095.5,286047012.0,N
1696622115.3,286047012.2,N
1696622135.1,286047011.7,N
1696622155.9,286047013.8,N
1696622175.7,286047017.2,Y
1696622195.6,286047003.9,P
1696622215.4,286047001.6,N
1696622235.2,286046999.3,N
1696622255.1,286046999.1,N
1696622256.0,286046999.1,N
1696622275.8,286047005.9,N
1696622295.7,286047001.6,N
1696622315.5,286046998.1,N
1696622335.3,286046995.4,N
1696622355.2,286046994.5,N
1696622375.0,286046991.8,N
1696622375.9,286046991.8,N
1696622395.7,286046994.8,N
